Regional Weather Roundup
Issued by NWS Sterling, VA

Home | Current Version | Previous Version | Text Only | Print | Product List | Glossary On
Versions: 1 2 3 4 5 6 7 8 9 10 11 12 13 14 15 16 17 18 19 20 21 22 23 24 25 26 27 28 29 30 31 32 33 34 35 36 37 38 39 40 41 42 43 44 45 46 47 48 49 50
502
ASUS41 KLWX 212010
RWRLWX

REGIONAL WEATHER ROUNDUP
NATIONAL WEATHER SERVICE BALTIMORE MD/WASHINGTON DC
300 PM EST SAT JAN 21 2017

Note: "FAIR" indicates few or no clouds below 12,000 feet
with no significant weather and/or obstructions to visibility.
 TC=TEMPERATURE CELSIUS

 * =Non NWS site. Station does not report precipitation (e.g. rain,
    snow, etc.), thunder, or fog.

DCZ001-MDZ009-015-VAZ040>042-051-053>054-212100-
WASHINGTON METRO

CITY           SKY/WX    TMP DP  RH WIND       PRES   REMARKS
WASHINGTON NAT CLOUDY    49  48  97 S6        29.84F
DULLES         CLOUDY    49  47  93 S6        29.82F FOG
ANDREWS AFB    CLOUDY    49  48  98 S6        29.82F
FT BELVOIR     CLOUDY    49  47  95 SE5       29.83F FOG
QUANTICO       FOG       48  48 100 CALM      29.85F VSB 1/4
COLLEGE PARK*  CLOUDY    48  45  87 CALM      29.83F
LEESBURG*      CLOUDY    50  50 100 S5        29.83F
GAITHERSBURG*  CLOUDY    48  45  87 SE3       29.86F

$$

MDZ006>007-011-014-212100-
BALTIMORE METRO

CITY           SKY/WX    TMP DP  RH WIND       PRES   REMARKS
BWI AIRPORT    CLOUDY    48  48 100 SW5       29.83S
MD SCIENCE CTR   N/A     47  44  90 MISG      29.84S
MARTIN STATE   FOG       45  45 100 SE7       29.86R VSB 1/2
ANNAPOLIS      FOG       46  45  96 S10       29.84S VSB 1/4
FORT MEADE*    CLOUDY    46  45  93 S3        29.85F

$$

MDZ012-015-019>023-212100-
MARYLAND EASTERN SHORE

CITY           SKY/WX    TMP DP  RH WIND       PRES   REMARKS
OCEAN CITY     FOG       45  45 100 S6        29.86S VSB 1/4
SALISBURY      CLOUDY    49  48  97 SW3       29.85S
BAY BRIDGE AP* FOG       46  46 100 SE6       29.84F VSB 1
CAMBRIDGE*     CLOUDY    45  45 100 SE5       29.84F
EASTON*        CLOUDY    48  46  93 S6        29.89R

$$

MDZ017>025-212100-
SOUTHERN MARYLAND

CITY           SKY/WX    TMP DP  RH WIND       PRES   REMARKS
PATUXENT RIVER FOG       45  45 100 SE6       29.84F VSB 1/2
ST INIGOES     CLOUDY    49  47  93 SE5       29.84S
LEONARDTOWN*   CLOUDY    50  46  87 CALM      29.85F

$$

MDZ003>005-212100-
NORTH CENTRAL MARYLAND

CITY           SKY/WX    TMP DP  RH WIND       PRES   REMARKS
FREDERICK*     CLOUDY    48  48 100 CALM      29.89R FOG
HAGERSTOWN APT FOG       46  44  93 NW3       29.80F VSB<1/4
WESTMINSTER*     N/A     46  46 100 S3        29.82S FOG

$$

MDZ501>502-212100-
WESTERN MARYLAND

CITY           SKY/WX    TMP DP  RH WIND       PRES   REMARKS
OAKLAND*         N/A     55  45  67 SW3       29.76F
CUMBERLAND*    CLOUDY    45  45 100 CALM      29.81F

$$

VAZ025>031-212100-
SHENANDOAH VALLEY

CITY           SKY/WX    TMP DP  RH WIND       PRES   REMARKS
WINCHESTER*    CLOUDY    45  45 100 E3        29.79F FOG
FRONT ROYAL*   CLOUDY    50  46  87 N3        29.77F
LURAY*         PTCLDY    55  52  88 NE5       29.76F
NEW MARKET*    PTCLDY    57  50  78 NE5       29.75F
STAUNTON*      MOSUNNY   62  49  63 SW7       29.77F
WAYNESBORO*    PTCLDY    60  49  65 CALM      29.76F

$$

WVZ021-048>050-054>055-212100-
EASTERN WEST VIRGINIA PANHANDLE

CITY           SKY/WX    TMP DP  RH WIND       PRES   REMARKS
MARTINSBURG    CLOUDY    47  45  93 CALM      29.80F FOG
PETERSBURG*    MOSUNNY   59  50  71 SE5       29.74F

$$

VAZ036>039-050-212100-
CENTRAL FOOTHILLS

CITY           SKY/WX    TMP DP  RH WIND       PRES   REMARKS
CHARLOTTESVILL CLOUDY    51  49  92 S5        29.80F FOG
CULPEPER*      CLOUDY    50  49  95 CALM      29.83F
ORANGE*          N/A     50  50 100 CALM      29.83F
GORDONSVILLE*  CLOUDY    50  50  99 S3        29.80F
WARRENTON*     CLOUDY    51  47  88 S3        29.82F

$$

VAZ055>057-212100-
NORTH AND CENTRAL PIEDMONT

CITY           SKY/WX    TMP DP  RH WIND       PRES   REMARKS
FREDERICKSBRG* CLOUDY    51  51 100 CALM      29.82F
STAFFORD*      CLOUDY    50  50 100 SE3       29.87S

$$

NCZ024-NYZ072-PAZ021-071-VAZ022-071-212100-
OTHER REGIONAL OBSERVATIONS

CITY           SKY/WX    TMP DP  RH WIND       PRES   REMARKS
NEW YORK CITY  SUNNY     46  42  86 VRB3      29.83S FOG
PHILADELPHIA   CLOUDY    46  45  96 SW5       29.84S FOG
PITTSBURGH     CLOUDY    64  50  60 S15G22    29.69F
ROANOKE        CLOUDY    52  48  86 SE5       29.80F
RICHMOND       CLOUDY    49  49 100 SE5       29.83F FOG
RALEIGH        FOG       54  52  93 E5        29.81F VSB 1/8

$$

ANZ530>537-212100-
MARINE OBSERVATIONS

STATION/POSITION TIME  TEMP    WIND        PRES
                       AIR SEA DIR/SP/G
                 (UTC) (F)     (DEG/KT/KT) (MB)
THOMAS PT LIGHT  2000   43 40  160/  7/  7   N/A
BALT KEY BRIDGE  1948   45     140/  7/  8 1010.4R
COVE POINT       1948   42     180/  5/  6 1011.2F
LEWISETTA        1948   45 44   80/  5/  5 1010.2F
SOLOMONS ISLAND  1948   44 41   80/  5/  6   N/A
PINEY POINT      1948          140/  6/  6   N/A

$$





USA.gov is the U.S. government's official web portal to all federal, state and local government web resources and services.